{"data":{"norad_id":46818,"epoch":"2026-05-25T00:01:21.668736Z","epoch_age_seconds":78200,"freshness":"FRESH","line1":"1 46818U 20077F   26145.00094524  .00146537  10165-4  40710-3 0  9993","line2":"2 46818  97.1990 226.2160 0004311 204.3518 155.7555 15.93789971311585","mean_motion":15.93789971,"eccentricity":0.0004311,"inclination_deg":97.199,"raan_deg":226.216,"arg_perigee_deg":204.3518,"mean_anomaly_deg":155.7555,"bstar":0.0004071,"rev_number":31158,"period_min":90.350675195709,"perigee_km":288.81277613461,"apogee_km":294.56349936838,"semimajor_km":6669.8251377515,"source":"CELESTRAK","updated_at":"2026-05-25T13:37:56.366533Z"}}